Showing default

ALSAT 2B, 41786

Orbit data source: Space-Track

ALSAT 2B, 41786 is a payload satellite owned by ASAL (DZ) in SSO that was launched on Mon, 26 Sep 2016 UTC via a PSLV launch vehicle from the Sirharikota (SRI). Payload-class satellites include a variety of spacecraft equipped with specific instruments for various scientific and technological missions. These include communications satellites like Starlink; space stations such as the ISS; scientific satellites like the Hubble; Earth observation satellites from companies like Planet Labs, Umbra, and HawkEye 360; GPS; miniature CubeSats for education and research; and military/defense satellites.

Loading next visibility...
Identifier
41786, 2016-059D
Orbit
SSO
Country
Flag of DZDZ / ALG
Related business
Manufacturer
Airbus/Toulouse
Mission
Operational Civil Imaging
Bus & Motor
MYRIADE, AOCS
Mass
117 kg wet, 117 kg dry
Launch date (UTC)
2016-09-26 (10 years ago)
Launch vehicle
PSLV
Launch site
Sirharikota (SRI)
Object type
Payload
Rocket body
Debris
Shape & HBR
Box + 1 Pan, 0.9 m
Radar Cross Section
0.912 m², Large (>1 m²)

Expand to show TLE details & history
Last TLE update: 23 hours ago

TLE from 23 hours ago
0 ALSAT 2B
1 41786U 16059D   26172.49656706  .00000885  00000-0  15266-3 0  9992
2 41786  97.9891 234.6861 0001370 117.9305 242.2040 14.70878344521400
Epoch: 2026-06-21T11:55Z
TLE epoch observation values (Epoch: 2026-06-21T11:55:03.393Z)
Latitude
-0.0001°
Longitude
146.22598°
Altitude
661.722 km
Speed
7.526 km/s
True Right ascension
15h 38m 44s
True Declination
0° 00' 00"
Sunlit
Object was in full shadow at epoch
Visualization orbit readout
Latitude
Unknown
Longitude
Unknown
Altitude
Unknown
Speed
Unknown
Apparent Right ascension
Unknown
Apparent Declination
Unknown
Sunlit
N/A
Visualization observer readout
Local Sidereal Time
21:37:00
Azimuth
Unknown
Elevation
Unknown
Doppler factor
Unknown
Orbital elements
Apogee altitude
656.286 km
Perigee altitude
654.359 km
Semi-major axis
7,033.46 km
Eccentricity
0.00014
Inclination
97.9891°
RAAN
234.6861°
Arg. of periapsis
117.9305°
True anomaly
242.19011°
Mean anomaly
242.204°
Eccentric anomaly
242.19706°
Mean motion
3.67951 °/min
Orbital period
97.84 mins
BSTAR
0.00015266
Loading maneuver chart data...
Computing Atmospheric mass density...
Loading historical data...
Loading historical data...
Loading historical data...
Loading historical data...
Loading historical data...
Loading historical data...
Loading historical data...

Documentation

Showing up to 5 results
|